Weather History for Liberia, Costa Rica

Change the Weather History Date:

Tuesday, May 6, 2014

  Actual Average Record
Temperature  
Mean Temperature 84 °F -  
Max Temperature 99 °F 89 °F 99 °F (2014)
Min Temperature 70 °F 76 °F 70 °F (2014)
Cooling Degree Days 20    
Growing Degree Days 34 (Base 50)    
Moisture  
Dew Point 67 °F    
Average Humidity 50    
Maximum Humidity 83    
Minimum Humidity 24    
Precipitation  
Precipitation 0.00 in - - ()
Sea Level Pressure  
Sea Level Pressure 29.82 in    
Wind  
Wind Speed 6 mph ()    
Max Wind Speed 12 mph    
Max Gust Speed -    
Visibility 8.1 miles    
Events      
Averages and records for this station are not official NWS values.
T = Trace of Precipitation, MM = Missing Value Source: Averaged Metar Reports

Daily Weather History Graph

Daily Weather History Graph

Search for Another Location

Airport:

Trip Planner

Search our weather history database for the weather conditions in past years. The results will help you decide how hot, cold, wet, or windy it might be!

Date:

Astronomy

May. 06, 2014 Rise Set
Actual Time 5:22 AM CST 5:55 PM CST
Civil Twilight 5:00 AM CST 6:17 PM CST
Nautical Twilight 4:34 AM CST 6:43 PM CST
Astronomical Twilight 4:08 AM CST 7:09 PM CST
Moon 11:25 AM CST (5/6) No Moon Set
Length of Visible Light 13h 16m
Length of Day
12h 32m
Waxing Crescent, 46% of the Moon is Illuminated
May 6
Waxing Crescent
May 6
First Quarter
May 14
Full
May 21
Last Quarter
May 28
New

Hourly Weather History & Observations

Time (CST) Temp. Heat Index Dew Point Humidity Pressure Visibility Wind Dir Wind Speed Gust Speed Precip Events Conditions
6:00 AM 71 °F - 67 °F 82% 29.84 in 12 mi SE 3.5 mph - -   Clear
6:00 AM 71.6 °F - 66.2 °F 83% 29.83 in - SE 3.5 mph - N/A   Clear
7:00 AM 77.0 °F - 68.0 °F 74% 29.85 in - South 5.8 mph - N/A   Clear
8:00 AM 84.2 °F 87.3 °F 68.0 °F 58% 29.87 in - South 9.2 mph - N/A   Clear
9:00 AM 86 °F - 65 °F 39% 29.88 in 12 mi NE 8.1 mph - -   Clear
9:00 AM 86.0 °F 87.3 °F 64.4 °F 48% 29.88 in - NE 8.1 mph - N/A   Clear
10:00 AM 91.4 °F 93.2 °F 64.4 °F 41% 29.86 in - East 11.5 mph - N/A   Clear
11:00 AM 93.2 °F 96.2 °F 66.2 °F 41% 29.84 in 6.2 mi ENE 9.2 mph - N/A   Partly Cloudy
12:00 PM 95 °F - 65 °F 27% 29.82 in 12 mi East 8.1 mph - -   Scattered Clouds
12:00 PM 95.0 °F 97.0 °F 64.4 °F 36% 29.81 in 6.2 mi East 8.1 mph - N/A   Partly Cloudy
1:00 PM 95.0 °F 97.0 °F 64.4 °F 36% 29.78 in 6.2 mi East 9.2 mph - N/A   Scattered Clouds
2:00 PM 96.8 °F 99.0 °F 64.4 °F 34% 29.75 in 6.2 mi East 9.2 mph - N/A   Scattered Clouds
3:00 PM 95 °F - 62 °F 24% 29.78 in 12 mi East 8.1 mph - -   Partly Cloudy
3:00 PM 95.0 °F 96.0 °F 62.6 °F 34% 29.75 in 6.2 mi East 8.1 mph - N/A   Scattered Clouds
4:00 PM 91.4 °F 96.8 °F 69.8 °F 49% 29.75 in 6.2 mi West 6.9 mph - N/A   Mostly Cloudy
5:00 PM 89.6 °F 93.4 °F 68.0 °F 49% 29.76 in 6.2 mi WSW 9.2 mph - N/A   Mostly Cloudy
6:00 PM 87 °F - 69 °F 47% 29.82 in 12 mi WSW 5.8 mph - -   Scattered Clouds
6:00 PM 86.0 °F 90.4 °F 69.8 °F 58% 29.79 in 6.2 mi WSW 5.8 mph - N/A   Mostly Cloudy
7:00 PM 84.2 °F 88.4 °F 69.8 °F 62% 29.81 in 6.2 mi SW 4.6 mph - N/A   Mostly Cloudy
8:00 PM 78.8 °F - 73.4 °F 83% 29.85 in 6.2 mi SSE 9.2 mph - N/A   Mostly Cloudy